Private Wetterstation Wechselburg
Wetterdaten: Montag, 14.11.2011
Datum Zeit Temp. +2m Bodentemp. Temp.+5cm Temp. Wind Windchill X Diff Temp. Feuchte +2m Feuchte +5cm Sonnenschein Luftdruck Regen Wind Richtung Richtung Sonnenschein UV Taupunkt Windchill Windben
14.11.2011 00:00 -2,5 C 10,5 C -2,1 C -2,9 C -3,6 C 0,0 C 90 % 91 % 0 % 1033,0 hPa 0,0 l/m 0,0 km/h (0 Bft) W 270 0 min 0,0 UV-I -3,9 C -3,6 C 0,0 km/h (0 Bft)
14.11.2011 00:10 -2,7 C 10,4 C -2,5 C -3,0 C -3,7 C 0,0 C 91 % 91 % 0 % 1033,0 hPa 0,0 l/m 0,0 km/h (0 Bft) N 0 0 min 0,0 UV-I -4,0 C -3,7 C 0,0 km/h (0 Bft)
14.11.2011 00:20 -2,7 C 10,4 C -2,5 C -3,0 C -3,7 C 0,0 C 91 % 91 % 0 % 1032,2 hPa 0,0 l/m 0,0 km/h (0 Bft) W 270 0 min 0,0 UV-I -4,0 C -3,7 C 0,0 km/h (0 Bft)
14.11.2011 00:25 -2,8 C 10,4 C -2,5 C -3,1 C -3,7 C 0,0 C 91 % 91 % 0 % 1032,2 hPa 0,0 l/m 0,0 km/h (0 Bft) W 270 0 min 0,0 UV-I -4,1 C -3,7 C 0,0 km/h (0 Bft)
14.11.2011 00:30 -2,8 C 10,4 C -2,5 C -3,1 C -3,7 C 0,0 C 91 % 91 % 0 % 1032,2 hPa 0,0 l/m 0,0 km/h (0 Bft) W 270 0 min 0,0 UV-I -4,1 C -3,7 C 0,0 km/h (0 Bft)
14.11.2011 00:35 -2,8 C 10,4 C -2,5 C -3,1 C -3,8 C 0,0 C 91 % 91 % 0 % 1032,2 hPa 0,0 l/m 0,0 km/h (0 Bft) W 270 0 min 0,0 UV-I -4,1 C -3,8 C 0,0 km/h (0 Bft)
14.11.2011 00:40 -2,9 C 10,4 C -2,5 C -3,2 C -3,9 C 0,0 C 90 % 91 % 0 % 1032,2 hPa 0,0 l/m 0,0 km/h (0 Bft) W 270 0 min 0,0 UV-I -4,3 C -3,9 C 0,0 km/h (0 Bft)
14.11.2011 00:45 -2,9 C 10,4 C -2,5 C -3,2 C -3,8 C 0,0 C 90 % 91 % 0 % 1032,2 hPa 0,0 l/m 0,0 km/h (0 Bft) W 270 0 min 0,0 UV-I -4,3 C -3,8 C 0,0 km/h (0 Bft)
14.11.2011 00:50 -2,9 C 10,4 C -2,5 C -3,2 C -3,9 C 0,0 C 90 % 91 % 0 % 1032,2 hPa 0,0 l/m 0,0 km/h (0 Bft) W 270 0 min 0,0 UV-I -4,3 C -3,9 C 0,0 km/h (0 Bft)
14.11.2011 00:55 -2,9 C 10,4 C -2,5 C -3,3 C -4,1 C 0,0 C 90 % 91 % 0 % 1032,2 hPa 0,0 l/m 0,0 km/h (0 Bft) W 270 0 min 0,0 UV-I -4,3 C -4,1 C 0,0 km/h (0 Bft)
14.11.2011 01:00 -2,9 C 10,4 C -2,5 C -3,3 C -4,1 C 0,0 C 90 % 91 % 0 % 1031,8 hPa 0,0 l/m 0,0 km/h (0 Bft) W 270 0 min 0,0 UV-I -4,3 C -4,1 C 0,0 km/h (0 Bft)
14.11.2011 01:04 -3,1 C 10,3 C -2,5 C -3,5 C -4,2 C 0,0 C 90 % 91 % 0 % 1031,8 hPa 0,0 l/m 0,0 km/h (0 Bft) W 270 0 min 0,0 UV-I -4,5 C -4,2 C 0,0 km/h (0 Bft)
14.11.2011 01:09 -3,1 C 10,3 C -2,5 C -3,5 C -4,2 C 0,0 C 90 % 91 % 0 % 1031,8 hPa 0,0 l/m 0,0 km/h (0 Bft) W 270 0 min 0,0 UV-I -4,5 C -4,2 C 0,0 km/h (0 Bft)
14.11.2011 01:14 -3,1 C 10,3 C -2,7 C -3,5 C -4,3 C 0,0 C 90 % 91 % 0 % 1031,8 hPa 0,0 l/m 0,0 km/h (0 Bft) W 270 0 min 0,0 UV-I -4,5 C -4,3 C 0,0 km/h (0 Bft)
14.11.2011 01:18 -3,1 C 10,3 C -2,7 C -3,5 C -4,3 C 0,0 C 90 % 91 % 0 % 1031,8 hPa 0,0 l/m 0,0 km/h (0 Bft) W 270 0 min 0,0 UV-I -4,5 C -4,3 C 0,0 km/h (0 Bft)
14.11.2011 01:25 -3,1 C 10,3 C -2,8 C -3,5 C -4,3 C 0,0 C 90 % 91 % 0 % 1032,1 hPa 0,0 l/m 0,0 km/h (0 Bft) W 270 0 min 0,0 UV-I -4,5 C -4,3 C 0,0 km/h (0 Bft)
14.11.2011 01:30 -3,2 C 10,3 C -2,8 C -3,5 C -4,2 C 0,0 C 90 % 91 % 0 % 1032,1 hPa 0,0 l/m 0,0 km/h (0 Bft) W 270 0 min 0,0 UV-I -4,6 C -4,2 C 0,0 km/h (0 Bft)
14.11.2011 01:35 -3,2 C 10,3 C -2,7 C -3,5 C -4,2 C 0,0 C 90 % 91 % 0 % 1032,1 hPa 0,0 l/m 0,0 km/h (0 Bft) W-SW 247 0 min 0,0 UV-I -4,6 C -4,2 C 0,0 km/h (0 Bft)
14.11.2011 01:40 -3,2 C 10,3 C -2,7 C -3,5 C -4,2 C 0,0 C 90 % 91 % 0 % 1032,1 hPa 0,0 l/m 0,0 km/h (0 Bft) SW 225 0 min 0,0 UV-I -4,6 C -4,2 C 0,0 km/h (0 Bft)
14.11.2011 01:45 -3,2 C 10,3 C -2,7 C -3,5 C -4,1 C 0,0 C 90 % 91 % 0 % 1032,1 hPa 0,0 l/m 0,0 km/h (0 Bft) SW 225 0 min 0,0 UV-I -4,6 C -4,1 C 0,0 km/h (0 Bft)
14.11.2011 01:50 -3,1 C 10,3 C -2,7 C -3,4 C -4,1 C 0,0 C 91 % 91 % 0 % 1032,1 hPa 0,0 l/m 0,0 km/h (0 Bft) S 180 0 min 0,0 UV-I -4,4 C -4,1 C 0,0 km/h (0 Bft)
14.11.2011 01:55 -3,2 C 10,3 C -2,7 C -3,5 C -4,1 C 0,0 C 91 % 91 % 0 % 1032,1 hPa 0,0 l/m 0,0 km/h (0 Bft) W-SW 247 0 min 0,0 UV-I -4,5 C -4,1 C 0,0 km/h (0 Bft)
14.11.2011 02:00 -3,1 C 10,3 C -2,7 C -3,4 C -4,1 C 0,0 C 91 % 91 % 0 % 1032,1 hPa 0,0 l/m 0,0 km/h (0 Bft) SW 225 0 min 0,0 UV-I -4,4 C -4,1 C 0,0 km/h (0 Bft)
14.11.2011 02:05 -3,1 C 10,3 C -2,7 C -3,4 C -4,0 C 0,0 C 91 % 91 % 0 % 1032,1 hPa 0,0 l/m 0,2 km/h (0 Bft) W-SW 247 0 min 0,0 UV-I -4,4 C -4,0 C 0,0 km/h (0 Bft)
14.11.2011 02:10 -2,9 C 10,3 C -2,7 C -3,3 C -4,0 C 0,0 C 91 % 91 % 0 % 1032,1 hPa 0,0 l/m 0,2 km/h (0 Bft) W-SW 247 0 min 0,0 UV-I -4,2 C -4,0 C 0,0 km/h (0 Bft)
14.11.2011 02:15 -2,9 C 10,3 C -2,7 C -3,3 C -4,1 C 0,0 C 91 % 91 % 0 % 1032,1 hPa 0,0 l/m 0,0 km/h (0 Bft) W-SW 247 0 min 0,0 UV-I -4,2 C -4,1 C 0,0 km/h (0 Bft)
14.11.2011 02:20 -3,1 C 10,2 C -2,7 C -3,5 C -4,2 C 0,0 C 91 % 91 % 0 % 1031,8 hPa 0,0 l/m 0,0 km/h (0 Bft) SW 225 0 min 0,0 UV-I -4,4 C -4,2 C 0,0 km/h (0 Bft)
14.11.2011 02:25 -3,1 C 10,2 C -2,8 C -3,5 C -4,3 C 0,0 C 91 % 91 % 0 % 1031,8 hPa 0,0 l/m 0,0 km/h (0 Bft) SW 225 0 min 0,0 UV-I -4,4 C -4,3 C 0,0 km/h (0 Bft)
14.11.2011 02:30 -3,2 C 10,2 C -2,7 C -3,6 C -4,4 C 0,0 C 91 % 91 % 0 % 1031,8 hPa 0,0 l/m 0,0 km/h (0 Bft) SW 225 0 min 0,0 UV-I -4,5 C -4,4 C 0,0 km/h (0 Bft)
14.11.2011 02:35 -3,2 C 10,2 C -2,9 C -3,6 C -4,3 C 0,0 C 91 % 90 % 0 % 1031,8 hPa 0,0 l/m 0,0 km/h (0 Bft) S 180 0 min 0,0 UV-I -4,5 C -4,3 C 0,0 km/h (0 Bft)
14.11.2011 02:40 -3,1 C 10,2 C -2,9 C -3,5 C -4,3 C 0,0 C 91 % 91 % 0 % 1031,8 hPa 0,0 l/m 0,0 km/h (0 Bft) S 180 0 min 0,0 UV-I -4,4 C -4,3 C 0,0 km/h (0 Bft)
14.11.2011 02:45 -3,2 C 10,2 C -2,9 C -3,6 C -4,3 C 0,0 C 91 % 90 % 0 % 1031,8 hPa 0,0 l/m 0,0 km/h (0 Bft) W-SW 247 0 min 0,0 UV-I -4,5 C -4,3 C 0,0 km/h (0 Bft)
14.11.2011 02:50 -3,3 C 10,2 C -2,9 C -3,7 C -4,4 C 0,0 C 91 % 91 % 0 % 1031,8 hPa 0,0 l/m 0,0 km/h (0 Bft) W-SW 247 0 min 0,0 UV-I -4,6 C -4,4 C 0,0 km/h (0 Bft)
14.11.2011 02:55 -3,3 C 10,2 C -2,9 C -3,7 C -4,5 C 0,0 C 91 % 91 % 0 % 1031,8 hPa 0,0 l/m 0,0 km/h (0 Bft) W-SW 247 0 min 0,0 UV-I -4,6 C -4,5 C 0,0 km/h (0 Bft)
14.11.2011 03:00 -3,3 C 10,2 C -2,9 C -3,7 C -4,5 C 0,0 C 91 % 91 % 0 % 1031,8 hPa 0,0 l/m 0,0 km/h (0 Bft) W-SW 247 0 min 0,0 UV-I -4,6 C -4,5 C 0,0 km/h (0 Bft)
14.11.2011 03:11 -3,3 C 10,2 C -2,9 C -3,6 C -4,2 C 0,0 C 91 % 91 % 0 % 1031,8 hPa 0,0 l/m 0,0 km/h (0 Bft) N 0 0 min 0,0 UV-I -4,6 C -4,2 C 0,0 km/h (0 Bft)
14.11.2011 03:20 -3,3 C 10,2 C -2,9 C -3,6 C -4,3 C 0,0 C 91 % 91 % 0 % 1031,8 hPa 0,0 l/m 0,0 km/h (0 Bft) S 180 0 min 0,0 UV-I -4,6 C -4,3 C 0,0 km/h (0 Bft)
14.11.2011 03:25 -3,3 C 10,2 C -2,7 C -3,6 C -4,1 C 0,0 C 91 % 91 % 0 % 1031,8 hPa 0,0 l/m 0,2 km/h (0 Bft) S-SW 202 0 min 0,0 UV-I -4,6 C -4,1 C 2,4 km/h (1 Bft)
14.11.2011 03:30 -3,2 C 10,1 C -2,7 C -3,5 C -4,0 C 0,0 C 91 % 91 % 0 % 1031,8 hPa 0,0 l/m 0,3 km/h (0 Bft) SW 225 0 min 0,0 UV-I -4,5 C -4,0 C 1,9 km/h (1 Bft)
14.11.2011 03:35 -3,3 C 10,1 C -2,8 C -3,6 C -4,1 C 0,0 C 91 % 91 % 0 % 1031,8 hPa 0,0 l/m 0,5 km/h (0 Bft) W-SW 247 0 min 0,0 UV-I -4,6 C -4,1 C 0,0 km/h (0 Bft)
14.11.2011 03:40 -3,3 C 10,1 C -2,9 C -3,6 C -4,2 C 0,0 C 91 % 91 % 0 % 1030,9 hPa 0,0 l/m 0,2 km/h (0 Bft) S 180 0 min 0,0 UV-I -4,6 C -4,2 C 0,0 km/h (0 Bft)
14.11.2011 03:45 -3,3 C 10,1 C -2,9 C -3,6 C -4,3 C 0,0 C 91 % 91 % 0 % 1030,9 hPa 0,0 l/m 0,0 km/h (0 Bft) S 180 0 min 0,0 UV-I -4,6 C -4,3 C 0,0 km/h (0 Bft)
14.11.2011 03:50 -3,3 C 10,1 C -3,1 C -3,6 C -4,2 C 0,0 C 91 % 91 % 0 % 1030,9 hPa 0,0 l/m 0,0 km/h (0 Bft) S 180 0 min 0,0 UV-I -4,6 C -4,2 C 0,0 km/h (0 Bft)
14.11.2011 03:55 -3,3 C 10,1 C -3,1 C -3,6 C -4,3 C 0,0 C 91 % 91 % 0 % 1030,9 hPa 0,0 l/m 0,0 km/h (0 Bft) SW 225 0 min 0,0 UV-I -4,6 C -4,3 C 0,0 km/h (0 Bft)
14.11.2011 04:00 -3,3 C 10,1 C -3,1 C -3,7 C -4,4 C 0,0 C 91 % 91 % 0 % 1030,1 hPa 0,0 l/m 0,0 km/h (0 Bft) W-SW 247 0 min 0,0 UV-I -4,6 C -4,4 C 0,0 km/h (0 Bft)
14.11.2011 04:11 -3,6 C 10,1 C -3,1 C -3,9 C -4,6 C 0,0 C 91 % 91 % 0 % 1030,1 hPa 0,0 l/m 0,0 km/h (0 Bft) N 0 0 min 0,0 UV-I -4,8 C -4,6 C 0,0 km/h (0 Bft)
14.11.2011 04:20 -3,6 C 10,1 C -3,2 C -3,9 C -4,5 C 0,0 C 91 % 91 % 0 % 1030,8 hPa 0,0 l/m 0,0 km/h (0 Bft) S-SO 157 0 min 0,0 UV-I -4,8 C -4,5 C 0,0 km/h (0 Bft)
14.11.2011 04:25 -3,6 C 10,1 C -3,3 C -3,9 C -4,4 C 0,0 C 91 % 91 % 0 % 1030,8 hPa 0,0 l/m 0,0 km/h (0 Bft) S-SO 157 0 min 0,0 UV-I -4,8 C -4,4 C 0,0 km/h (0 Bft)
14.11.2011 04:30 -3,6 C 10,1 C -3,3 C -3,9 C -4,4 C 0,0 C 91 % 91 % 0 % 1030,8 hPa 0,0 l/m 0,0 km/h (0 Bft) S 180 0 min 0,0 UV-I -4,8 C -4,4 C 0,0 km/h (0 Bft)
14.11.2011 04:35 -3,7 C 10,0 C -3,3 C -4,0 C -4,5 C 0,0 C 91 % 91 % 0 % 1030,8 hPa 0,0 l/m 0,0 km/h (0 Bft) W-SW 247 0 min 0,0 UV-I -4,9 C -4,5 C 0,0 km/h (0 Bft)
14.11.2011 04:40 -3,7 C 10,0 C -3,3 C -4,0 C -4,6 C 0,0 C 91 % 91 % 0 % 1030,4 hPa 0,0 l/m 0,0 km/h (0 Bft) W-SW 247 0 min 0,0 UV-I -4,9 C -4,6 C 0,0 km/h (0 Bft)
14.11.2011 04:44 -3,7 C 10,0 C -3,2 C -4,0 C -4,6 C 0,0 C 91 % 91 % 0 % 1030,4 hPa 0,0 l/m 0,0 km/h (0 Bft) W-SW 247 0 min 0,0 UV-I -4,9 C -4,6 C 0,0 km/h (0 Bft)
14.11.2011 04:49 -3,7 C 10,0 C -3,2 C -4,0 C -4,6 C 0,0 C 91 % 91 % 0 % 1030,4 hPa 0,0 l/m 0,0 km/h (0 Bft) W-SW 247 0 min 0,0 UV-I -4,9 C -4,6 C 0,0 km/h (0 Bft)
14.11.2011 04:53 -3,7 C 10,0 C -3,2 C -4,0 C -4,6 C 0,0 C 91 % 91 % 0 % 1030,4 hPa 0,0 l/m 0,0 km/h (0 Bft) W-SW 247 0 min 0,0 UV-I -4,9 C -4,6 C 0,0 km/h (0 Bft)
14.11.2011 05:00 -3,7 C 10,0 C -3,3 C -4,0 C -4,6 C 0,0 C 91 % 91 % 0 % 1030,4 hPa 0,0 l/m 0,0 km/h (0 Bft) SW 225 0 min 0,0 UV-I -4,9 C -4,6 C 0,0 km/h (0 Bft)
14.11.2011 05:05 -3,7 C 10,0 C -3,3 C -4,0 C -4,7 C 0,0 C 91 % 91 % 0 % 1030,4 hPa 0,0 l/m 0,0 km/h (0 Bft) SW 225 0 min 0,0 UV-I -4,9 C -4,7 C 0,0 km/h (0 Bft)
14.11.2011 05:15 -3,9 C 10,0 C -3,3 C -4,2 C -4,7 C 0,0 C 91 % 91 % 0 % 1030,4 hPa 0,0 l/m 0,0 km/h (0 Bft) N 0 0 min 0,0 UV-I -5,1 C -4,7 C 0,0 km/h (0 Bft)
14.11.2011 05:25 -4,0 C 10,0 C -3,3 C -4,2 C -4,7 C 0,0 C 91 % 91 % 0 % 1030,5 hPa 0,0 l/m 0,0 km/h (0 Bft) W-SW 247 0 min 0,0 UV-I -5,2 C -4,7 C 0,0 km/h (0 Bft)
14.11.2011 05:30 -4,1 C 10,0 C -3,3 C -4,4 C -4,9 C 0,0 C 91 % 91 % 0 % 1030,5 hPa 0,0 l/m 0,0 km/h (0 Bft) W-SW 247 0 min 0,0 UV-I -5,3 C -4,9 C 0,0 km/h (0 Bft)
14.11.2011 05:35 -4,0 C 10,0 C -3,3 C -4,2 C -4,7 C 0,0 C 91 % 91 % 0 % 1030,5 hPa 0,0 l/m 0,0 km/h (0 Bft) W-SW 247 0 min 0,0 UV-I -5,2 C -4,7 C 0,0 km/h (0 Bft)
14.11.2011 05:40 -3,9 C 10,0 C -3,3 C -4,2 C -4,7 C 0,0 C 91 % 91 % 0 % 1030,5 hPa 0,0 l/m 0,0 km/h (0 Bft) SW 225 0 min 0,0 UV-I -5,1 C -4,7 C 0,0 km/h (0 Bft)
14.11.2011 05:45 -3,9 C 10,0 C -3,3 C -4,1 C -4,6 C 0,0 C 91 % 91 % 0 % 1030,5 hPa 0,0 l/m 0,0 km/h (0 Bft) SW 225 0 min 0,0 UV-I -5,1 C -4,6 C 0,0 km/h (0 Bft)
14.11.2011 05:50 -3,9 C 10,0 C -3,3 C -4,2 C -4,7 C 0,0 C 91 % 91 % 0 % 1030,5 hPa 0,0 l/m 0,0 km/h (0 Bft) SW 225 0 min 0,0 UV-I -5,1 C -4,7 C 0,0 km/h (0 Bft)
14.11.2011 05:55 -3,9 C 10,0 C -3,3 C -4,1 C -4,6 C 0,0 C 91 % 91 % 0 % 1030,5 hPa 0,0 l/m 0,0 km/h (0 Bft) S 180 0 min 0,0 UV-I -5,1 C -4,6 C 0,0 km/h (0 Bft)
14.11.2011 06:00 -3,9 C 9,9 C -3,4 C -4,2 C -4,7 C 0,0 C 91 % 91 % 0 % 1029,8 hPa 0,0 l/m 0,0 km/h (0 Bft) S 180 0 min 0,0 UV-I -5,1 C -4,7 C 0,0 km/h (0 Bft)
14.11.2011 06:11 -3,9 C 9,9 C -3,5 C -4,2 C -4,7 C 0,0 C 91 % 91 % 0 % 1029,8 hPa 0,0 l/m 0,0 km/h (0 Bft) N 0 0 min 0,0 UV-I -5,1 C -4,7 C 0,0 km/h (0 Bft)
14.11.2011 06:20 -3,9 C 9,9 C -3,3 C -4,2 C -4,8 C 0,0 C 91 % 91 % 0 % 1029,6 hPa 0,0 l/m 0,0 km/h (0 Bft) S 180 0 min 0,0 UV-I -5,1 C -4,8 C 0,0 km/h (0 Bft)
14.11.2011 06:25 -3,9 C 9,9 C -3,5 C -4,1 C -4,6 C 0,0 C 91 % 91 % 0 % 1029,6 hPa 0,0 l/m 0,0 km/h (0 Bft) S 180 0 min 0,0 UV-I -5,1 C -4,6 C 0,0 km/h (0 Bft)
14.11.2011 06:30 -3,9 C 9,9 C -3,5 C -4,1 C -4,6 C 0,0 C 91 % 91 % 0 % 1029,6 hPa 0,0 l/m 0,0 km/h (0 Bft) S 180 0 min 0,0 UV-I -5,1 C -4,6 C 0,0 km/h (0 Bft)
14.11.2011 06:35 -3,9 C 9,9 C -3,6 C -4,1 C -4,5 C 0,0 C 91 % 91 % 0 % 1029,6 hPa 0,0 l/m 0,0 km/h (0 Bft) S 180 0 min 0,0 UV-I -5,1 C -4,5 C 0,0 km/h (0 Bft)
14.11.2011 06:40 -4,0 C 9,9 C -3,5 C -4,2 C -4,5 C 0,0 C 91 % 91 % 0 % 1029,6 hPa 0,0 l/m 0,0 km/h (0 Bft) S 180 0 min 0,0 UV-I -5,2 C -4,5 C 0,0 km/h (0 Bft)
14.11.2011 06:45 -3,9 C 9,9 C -3,5 C -4,2 C -4,7 C 0,0 C 91 % 91 % 0 % 1029,6 hPa 0,0 l/m 0,0 km/h (0 Bft) S 180 0 min 0,0 UV-I -5,1 C -4,7 C 0,0 km/h (0 Bft)
14.11.2011 06:50 -4,1 C 9,9 C -3,5 C -4,3 C -4,8 C 0,0 C 91 % 91 % 0 % 1029,6 hPa 0,0 l/m 0,0 km/h (0 Bft) SW 225 0 min 0,0 UV-I -5,3 C -4,8 C 0,0 km/h (0 Bft)
14.11.2011 06:55 -4,1 C 9,9 C -3,5 C -4,4 C -4,9 C 0,0 C 91 % 91 % 0 % 1029,6 hPa 0,0 l/m 0,0 km/h (0 Bft) SW 225 0 min 0,0 UV-I -5,3 C -4,9 C 0,0 km/h (0 Bft)
14.11.2011 07:00 -4,1 C 9,9 C -3,5 C -4,4 C -4,9 C 0,0 C 91 % 91 % 0 % 1029,6 hPa 0,0 l/m 0,0 km/h (0 Bft) SW 225 0 min 0,0 UV-I -5,3 C -4,9 C 0,0 km/h (0 Bft)
14.11.2011 07:11 -4,0 C 9,8 C -3,6 C -4,2 C -4,7 C 0,0 C 91 % 91 % 0 % 1029,6 hPa 0,0 l/m 0,0 km/h (0 Bft) N 0 0 min 0,0 UV-I -5,2 C -4,7 C 0,0 km/h (0 Bft)
14.11.2011 07:20 -4,0 C 9,8 C -3,6 C -4,3 C -4,8 C 0,0 C 91 % 91 % 0 % 1030,0 hPa 0,0 l/m 0,0 km/h (0 Bft) W-SW 247 0 min 0,0 UV-I -5,2 C -4,8 C 0,0 km/h (0 Bft)
14.11.2011 07:25 -3,9 C 9,8 C -3,6 C -4,2 C -4,7 C 0,0 C 91 % 91 % 0 % 1030,0 hPa 0,0 l/m 0,0 km/h (0 Bft) W-SW 247 0 min 0,0 UV-I -5,1 C -4,7 C 0,0 km/h (0 Bft)
14.11.2011 07:30 -4,1 C 9,8 C -3,5 C -4,3 C -4,7 C 0,0 C 91 % 91 % 0 % 1030,0 hPa 0,0 l/m 0,0 km/h (0 Bft) W-SW 247 0 min 0,0 UV-I -5,3 C -4,7 C 0,0 km/h (0 Bft)
14.11.2011 07:35 -4,1 C 9,8 C -3,5 C -4,3 C -4,8 C 0,0 C 91 % 91 % 0 % 1030,0 hPa 0,0 l/m 0,0 km/h (0 Bft) W-SW 247 0 min 0,0 UV-I -5,3 C -4,8 C 0,0 km/h (0 Bft)
14.11.2011 07:40 -4,1 C 9,8 C -3,6 C -4,3 C -4,8 C 0,0 C 91 % 91 % 0 % 1030,2 hPa 0,0 l/m 0,0 km/h (0 Bft) W-SW 247 0 min 0,0 UV-I -5,3 C -4,8 C 0,0 km/h (0 Bft)
14.11.2011 07:45 -4,1 C 9,8 C -3,3 C -4,4 C -4,9 C 0,0 C 91 % 91 % 0 % 1030,2 hPa 0,0 l/m 0,0 km/h (0 Bft) W-SW 247 0 min 0,0 UV-I -5,3 C -4,9 C 0,0 km/h (0 Bft)
14.11.2011 07:50 -4,1 C 9,8 C -3,3 C -4,3 C -4,8 C 0,0 C 91 % 91 % 0 % 1030,2 hPa 0,0 l/m 0,0 km/h (0 Bft) W-SW 247 0 min 0,0 UV-I -5,3 C -4,8 C 0,0 km/h (0 Bft)
14.11.2011 07:55 -4,1 C 9,8 C -3,3 C -4,3 C -4,8 C 0,0 C 91 % 91 % 0 % 1030,2 hPa 0,0 l/m 0,0 km/h (0 Bft) W-SW 247 0 min 0,0 UV-I -5,3 C -4,8 C 0,0 km/h (0 Bft)
14.11.2011 08:00 -4,1 C 9,8 C -3,3 C -4,3 C -4,7 C 0,0 C 91 % 91 % 0 % 1030,2 hPa 0,0 l/m 0,0 km/h (0 Bft) W-SW 247 0 min 0,0 UV-I -5,3 C -4,7 C 0,0 km/h (0 Bft)
14.11.2011 08:10 -4,1 C 9,8 C -3,3 C -4,3 C -4,6 C 0,0 C 91 % 91 % 0 % 1030,2 hPa 0,0 l/m 0,0 km/h (0 Bft) N 0 0 min 0,0 UV-I -5,3 C -4,6 C 0,0 km/h (0 Bft)
14.11.2011 08:20 -4,1 C 9,8 C -3,1 C -4,2 C -4,3 C 0,0 C 91 % 91 % 0 % 1030,2 hPa 0,0 l/m 0,0 km/h (0 Bft) W-SW 247 0 min 0,0 UV-I -5,3 C -4,3 C 0,0 km/h (0 Bft)
14.11.2011 08:25 -4,0 C 9,7 C -3,1 C -4,0 C -4,1 C 0,0 C 91 % 91 % 0 % 1030,2 hPa 0,0 l/m 0,0 km/h (0 Bft) W-SW 247 0 min 0,0 UV-I -5,2 C -4,1 C 0,0 km/h (0 Bft)
14.11.2011 08:30 -3,9 C 9,7 C -3,1 C -3,9 C -3,9 C 0,0 C 91 % 91 % 0 % 1030,2 hPa 0,0 l/m 0,0 km/h (0 Bft) SW 225 0 min 0,0 UV-I -5,1 C -3,9 C 0,0 km/h (0 Bft)
14.11.2011 08:35 -3,7 C 9,7 C -2,9 C -3,7 C -3,7 C 0,0 C 92 % 91 % 0 % 1030,2 hPa 0,0 l/m 0,0 km/h (0 Bft) SW 225 0 min 0,0 UV-I -4,8 C -3,7 C 0,0 km/h (0 Bft)
14.11.2011 08:40 -3,7 C 9,8 C -2,9 C -3,7 C -3,7 C 0,0 C 92 % 91 % 0 % 1030,2 hPa 0,0 l/m 0,0 km/h (0 Bft) W-SW 247 0 min 0,0 UV-I -4,8 C -3,7 C 0,0 km/h (0 Bft)
14.11.2011 08:45 -3,7 C 9,7 C -2,5 C -3,5 C -3,5 C 0,2 C 92 % 91 % 5 % 1030,2 hPa 0,0 l/m 0,0 km/h (0 Bft) W-SW 247 0 min 0,0 UV-I -4,8 C -3,5 C 0,0 km/h (0 Bft)
14.11.2011 08:50 -3,7 C 9,6 C -2,5 C -3,3 C -3,3 C 0,4 C 92 % 91 % 11 % 1030,2 hPa 0,0 l/m 0,0 km/h (0 Bft) W-SW 247 0 min 0,0 UV-I -4,8 C -3,3 C 0,0 km/h (0 Bft)
14.11.2011 08:55 -3,3 C 9,6 C -2,5 C -3,1 C -3,1 C 0,2 C 92 % 91 % 5 % 1030,2 hPa 0,0 l/m 0,0 km/h (0 Bft) W-SW 247 0 min 0,0 UV-I -4,4 C -3,1 C 0,0 km/h (0 Bft)
14.11.2011 09:00 -3,3 C 9,6 C -2,3 C -3,0 C -3,0 C 0,3 C 92 % 91 % 8 % 1030,2 hPa 0,0 l/m 0,0 km/h (0 Bft) S-SW 202 0 min 0,0 UV-I -4,4 C -3,0 C 0,0 km/h (0 Bft)
14.11.2011 09:11 -2,9 C 9,5 C -2,1 C -2,6 C -2,6 C 0,3 C 92 % 91 % 8 % 1030,2 hPa 0,0 l/m 0,0 km/h (0 Bft) N 0 0 min 0,0 UV-I -4,0 C -2,6 C 0,0 km/h (0 Bft)
14.11.2011 09:20 -2,9 C 9,4 C -2,0 C -2,2 C -2,2 C 0,7 C 92 % 91 % 18 % 1029,6 hPa 0,0 l/m 0,0 km/h (0 Bft) W-SW 247 0 min 0,0 UV-I -4,0 C -2,2 C 0,0 km/h (0 Bft)
14.11.2011 09:25 -2,7 C 9,4 C -1,7 C -1,6 C -1,6 C 1,1 C 92 % 91 % 29 % 1029,6 hPa 0,0 l/m 0,0 km/h (0 Bft) SW 225 0 min 0,0 UV-I -3,8 C -1,6 C 0,0 km/h (0 Bft)
14.11.2011 09:30 -2,5 C 9,4 C -1,5 C -1,5 C -1,5 C 1,0 C 92 % 92 % 26 % 1029,6 hPa 0,0 l/m 0,0 km/h (0 Bft) W-SW 247 0 min 0,0 UV-I -3,6 C -1,5 C 0,0 km/h (0 Bft)
14.11.2011 09:35 -2,1 C 9,3 C -1,3 C -1,3 C -1,3 C 0,8 C 92 % 92 % 21 % 1029,6 hPa 0,0 l/m 0,0 km/h (0 Bft) W-SW 247 0 min 0,0 UV-I -3,2 C -1,3 C 0,0 km/h (0 Bft)
14.11.2011 09:40 -2,1 C 9,3 C -1,1 C -1,1 C -1,1 C 1,0 C 92 % 92 % 26 % 1029,4 hPa 0,0 l/m 0,0 km/h (0 Bft) W-SW 247 0 min 0,0 UV-I -3,2 C -1,1 C 0,0 km/h (0 Bft)
14.11.2011 09:45 -1,7 C 9,3 C -0,9 C -0,8 C -0,8 C 0,9 C 93 % 92 % 24 % 1029,4 hPa 0,0 l/m 0,0 km/h (0 Bft) W-SW 247 0 min 0,0 UV-I -2,7 C -0,8 C 0,0 km/h (0 Bft)
14.11.2011 09:50 -1,5 C 9,3 C -0,7 C -0,5 C -0,5 C 1,0 C 93 % 92 % 26 % 1029,4 hPa 0,0 l/m 0,0 km/h (0 Bft) W-SW 247 0 min 0,0 UV-I -2,5 C -0,5 C 0,0 km/h (0 Bft)
14.11.2011 09:55 -1,1 C 9,5 C -0,5 C -0,2 C -0,2 C 0,9 C 93 % 92 % 24 % 1029,4 hPa 0,0 l/m 0,0 km/h (0 Bft) S 180 0 min 0,0 UV-I -2,1 C -0,2 C 0,0 km/h (0 Bft)
14.11.2011 10:00 -0,9 C 9,5 C -0,1 C 0,0 C 0,0 C 0,9 C 93 % 92 % 24 % 1029,8 hPa 0,0 l/m 0,0 km/h (0 Bft) S 180 0 min 0,0 UV-I -1,9 C 0,0 C 0,0 km/h (0 Bft)
14.11.2011 10:11 -0,3 C 9,5 C 0,3 C 0,5 C 0,5 C 0,8 C 93 % 92 % 21 % 1029,8 hPa 0,0 l/m 0,0 km/h (0 Bft) N 0 0 min 0,0 UV-I -1,3 C 0,5 C 0,0 km/h (0 Bft)
14.11.2011 10:20 0,2 C 9,3 C 0,6 C 1,2 C 1,2 C 1,0 C 93 % 92 % 26 % 1029,2 hPa 0,0 l/m 0,0 km/h (0 Bft) W-SW 247 0 min 0,0 UV-I -0,8 C 1,2 C 0,0 km/h (0 Bft)
14.11.2011 10:25 0,3 C 9,3 C 0,8 C 1,5 C 1,5 C 1,2 C 93 % 92 % 32 % 1029,2 hPa 0,0 l/m 0,0 km/h (0 Bft) NW 315 0 min 0,0 UV-I -0,7 C 1,5 C 0,0 km/h (0 Bft)
14.11.2011 10:30 0,3 C 9,3 C 1,1 C 1,7 C 1,7 C 1,4 C 93 % 92 % 37 % 1029,2 hPa 0,0 l/m 0,0 km/h (0 Bft) NW 315 0 min 0,0 UV-I -0,7 C 1,7 C 0,0 km/h (0 Bft)
14.11.2011 10:35 0,5 C 9,2 C 1,4 C 2,3 C 2,3 C 1,8 C 93 % 92 % 47 % 1029,2 hPa 0,0 l/m 0,0 km/h (0 Bft) W-SW 247 0 min 0,0 UV-I -0,5 C 2,3 C 0,0 km/h (0 Bft)
14.11.2011 10:40 0,8 C 9,2 C 1,6 C 2,6 C 2,6 C 1,8 C 93 % 92 % 47 % 1029,3 hPa 0,0 l/m 0,0 km/h (0 Bft) W-SW 247 0 min 0,0 UV-I -0,2 C 2,6 C 0,0 km/h (0 Bft)
14.11.2011 10:45 1,1 C 9,3 C 1,8 C 3,2 C 3,2 C 2,1 C 93 % 92 % 55 % 1029,3 hPa 0,0 l/m 0,0 km/h (0 Bft) W-SW 247 0 min 0,0 UV-I 0,1 C 3,2 C 0,0 km/h (0 Bft)
14.11.2011 10:50 1,2 C 9,3 C 2,1 C 3,7 C 3,7 C 2,5 C 93 % 92 % 66 % 1029,3 hPa 0,0 l/m 0,0 km/h (0 Bft) W-SW 247 0 min 0,0 UV-I 0,2 C 3,7 C 0,0 km/h (0 Bft)
14.11.2011 10:55 1,3 C 9,3 C 2,3 C 4,3 C 4,3 C 3,0 C 93 % 92 % 79 % 1029,3 hPa 0,0 l/m 0,0 km/h (0 Bft) SW 225 0 min 0,0 UV-I 0,3 C 4,3 C 0,0 km/h (0 Bft)
14.11.2011 11:00 1,5 C 9,3 C 2,3 C 4,7 C 4,7 C 3,2 C 93 % 92 % 84 % 1028,9 hPa 0,0 l/m 0,0 km/h (0 Bft) W-SW 247 0 min 0,0 UV-I 0,5 C 4,7 C 0,0 km/h (0 Bft)
14.11.2011 11:10 1,7 C 9,2 C 2,7 C 5,6 C 5,6 C 3,9 C 93 % 92 % 100 % 1028,9 hPa 0,0 l/m 0,0 km/h (0 Bft) N 0 10 min 0,0 UV-I 0,7 C 5,6 C 0,0 km/h (0 Bft)
14.11.2011 11:20 2,0 C 9,2 C 2,9 C 6,0 C 6,0 C 4,0 C 93 % 91 % 100 % 1028,9 hPa 0,0 l/m 0,0 km/h (0 Bft) W-SW 247 10 min 0,0 UV-I 1,0 C 6,0 C 0,0 km/h (0 Bft)
14.11.2011 11:25 2,3 C 9,2 C 3,1 C 6,2 C 6,2 C 3,9 C 93 % 91 % 100 % 1028,9 hPa 0,0 l/m 0,0 km/h (0 Bft) W 270 5 min 0,0 UV-I 1,3 C 6,2 C 0,0 km/h (0 Bft)
14.11.2011 11:30 2,5 C 9,1 C 3,3 C 6,3 C 6,3 C 3,8 C 93 % 91 % 100 % 1028,9 hPa 0,0 l/m 0,0 km/h (0 Bft) SW 225 5 min 0,0 UV-I 1,5 C 6,3 C 0,0 km/h (0 Bft)
14.11.2011 11:35 2,9 C 9,1 C 3,7 C 6,7 C 6,7 C 3,8 C 93 % 91 % 100 % 1028,9 hPa 0,0 l/m 0,0 km/h (0 Bft) W-SW 247 5 min 0,0 UV-I 1,9 C 6,7 C 0,0 km/h (0 Bft)
14.11.2011 11:40 3,3 C 9,1 C 3,9 C 6,9 C 6,9 C 3,6 C 93 % 91 % 95 % 1028,9 hPa 0,0 l/m 1,0 km/h (0 Bft) W-SW 247 5 min 0,0 UV-I 2,3 C 6,9 C 1,9 km/h (1 Bft)
14.11.2011 11:45 3,6 C 9,1 C 4,1 C 7,1 C 7,1 C 3,5 C 93 % 90 % 92 % 1028,9 hPa 0,0 l/m 1,1 km/h (1 Bft) SW 225 5 min 0,0 UV-I 2,6 C 7,1 C 1,6 km/h (1 Bft)
14.11.2011 11:50 3,9 C 9,1 C 4,3 C 7,1 C 7,1 C 3,2 C 93 % 90 % 84 % 1028,9 hPa 0,0 l/m 0,6 km/h (0 Bft) W-SW 247 0 min 0,0 UV-I 2,9 C 7,1 C 3,1 km/h (1 Bft)
14.11.2011 11:55 4,2 C 9,2 C 4,4 C 7,4 C 7,4 C 3,2 C 92 % 90 % 84 % 1028,9 hPa 0,0 l/m 0,5 km/h (0 Bft) W-SW 247 0 min 0,0 UV-I 3,0 C 7,4 C 0,0 km/h (0 Bft)
14.11.2011 12:00 4,3 C 9,2 C 4,4 C 7,6 C 7,6 C 3,3 C 92 % 89 % 87 % 1028,3 hPa 0,0 l/m 0,2 km/h (0 Bft) W-SW 247 5 min 0,0 UV-I 3,1 C 7,6 C 0,0 km/h (0 Bft)
14.11.2011 12:11 4,8 C 9,2 C 4,9 C 8,2 C 8,2 C 3,4 C 91 % 89 % 89 % 1028,3 hPa 0,0 l/m 0,3 km/h (0 Bft) N 0 11 min 0,0 UV-I 3,5 C 8,2 C 2,4 km/h (1 Bft)
14.11.2011 12:20 5,5 C 9,2 C 5,3 C 8,4 C 8,4 C 2,9 C 90 % 89 % 76 % 1028,6 hPa 0,0 l/m 0,6 km/h (0 Bft) W-SW 247 0 min 0,0 UV-I 4,0 C 8,4 C 0,0 km/h (0 Bft)
14.11.2011 12:25 5,6 C 9,2 C 5,3 C 8,6 C 8,6 C 3,0 C 89 % 88 % 79 % 1028,6 hPa 0,0 l/m 0,0 km/h (0 Bft) W-NW 292 0 min 0,0 UV-I 3,9 C 8,6 C 0,0 km/h (0 Bft)
14.11.2011 12:30 5,9 C 9,2 C 5,5 C 8,6 C 8,6 C 2,7 C 89 % 88 % 71 % 1028,6 hPa 0,0 l/m 0,3 km/h (0 Bft) SW 225 0 min 0,0 UV-I 4,2 C 8,6 C 1,9 km/h (1 Bft)
14.11.2011 12:35 6,1 C 9,2 C 5,6 C 8,4 C 8,4 C 2,3 C 87 % 88 % 61 % 1028,6 hPa 0,0 l/m 0,8 km/h (0 Bft) SW 225 0 min 0,0 UV-I 4,1 C 8,4 C 0,0 km/h (0 Bft)
14.11.2011 12:40 6,3 C 9,2 C 5,7 C 8,6 C 8,6 C 2,3 C 86 % 87 % 61 % 1028,0 hPa 0,0 l/m 0,8 km/h (0 Bft) W-SW 247 0 min 0,0 UV-I 4,1 C 8,6 C 2,1 km/h (1 Bft)
14.11.2011 12:45 6,5 C 9,2 C 6,0 C 8,8 C 8,8 C 2,3 C 85 % 86 % 61 % 1028,0 hPa 0,0 l/m 0,6 km/h (0 Bft) N-NO 22 0 min 0,0 UV-I 4,2 C 8,8 C 0,0 km/h (0 Bft)
14.11.2011 12:50 6,7 C 9,2 C 6,1 C 9,2 C 9,2 C 2,5 C 84 % 86 % 66 % 1028,0 hPa 0,0 l/m 0,8 km/h (0 Bft) O 90 0 min 0,0 UV-I 4,2 C 9,2 C 0,0 km/h (0 Bft)
14.11.2011 12:55 7,1 C 9,3 C 6,3 C 9,8 C 9,8 C 2,7 C 81 % 85 % 71 % 1028,0 hPa 0,0 l/m 0,5 km/h (0 Bft) NO 45 0 min 0,0 UV-I 4,1 C 9,8 C 2,6 km/h (1 Bft)
14.11.2011 13:00 7,2 C 9,3 C 6,5 C 9,8 C 9,8 C 2,6 C 80 % 83 % 68 % 1028,4 hPa 0,0 l/m 0,8 km/h (0 Bft) O 90 0 min 0,0 UV-I 4,0 C 9,8 C 2,9 km/h (1 Bft)
14.11.2011 13:11 7,5 C 9,3 C 7,0 C 10,2 C 10,2 C 2,7 C 79 % 82 % 71 % 1028,4 hPa 0,0 l/m 1,9 km/h (1 Bft) N 0 0 min 0,0 UV-I 4,1 C 10,2 C 1,9 km/h (1 Bft)
14.11.2011 13:20 7,9 C 9,3 C 7,2 C 11,0 C 11,0 C 3,1 C 76 % 80 % 82 % 1028,2 hPa 0,0 l/m 1,0 km/h (0 Bft) NW 315 0 min 0,0 UV-I 3,9 C 11,0 C 0,0 km/h (0 Bft)
14.11.2011 13:25 8,1 C 9,3 C 7,2 C 11,4 C 11,4 C 3,3 C 76 % 79 % 87 % 1028,2 hPa 0,0 l/m 0,2 km/h (0 Bft) S 180 5 min 0,0 UV-I 4,1 C 11,4 C 0,0 km/h (0 Bft)
14.11.2011 13:30 8,3 C 9,3 C 7,1 C 11,3 C 11,3 C 3,0 C 75 % 80 % 79 % 1028,2 hPa 0,0 l/m 0,0 km/h (0 Bft) W-SW 247 0 min 0,0 UV-I 4,1 C 11,3 C 0,0 km/h (0 Bft)
14.11.2011 13:35 8,3 C 9,4 C 6,9 C 10,9 C 10,9 C 2,6 C 75 % 81 % 68 % 1028,2 hPa 0,0 l/m 0,0 km/h (0 Bft) SW 225 0 min 0,0 UV-I 4,1 C 10,9 C 0,0 km/h (0 Bft)
14.11.2011 13:40 8,4 C 9,4 C 6,9 C 10,8 C 10,8 C 2,4 C 75 % 81 % 63 % 1027,4 hPa 0,0 l/m 0,2 km/h (0 Bft) SW 225 0 min 0,0 UV-I 4,2 C 10,8 C 0,0 km/h (0 Bft)
14.11.2011 13:45 8,4 C 9,4 C 7,3 C 11,3 C 11,3 C 2,9 C 74 % 82 % 76 % 1027,4 hPa 0,0 l/m 1,1 km/h (1 Bft) W-SW 247 0 min 0,0 UV-I 4,0 C 11,3 C 2,7 km/h (1 Bft)
14.11.2011 13:50 8,5 C 9,3 C 7,8 C 11,4 C 11,4 C 2,9 C 73 % 81 % 76 % 1027,4 hPa 0,0 l/m 1,9 km/h (1 Bft) W-SW 247 0 min 0,0 UV-I 3,9 C 11,4 C 2,7 km/h (1 Bft)
14.11.2011 13:55 8,9 C 9,3 C 8,4 C 11,9 C 11,9 C 3,0 C 72 % 80 % 79 % 1027,4 hPa 0,0 l/m 2,7 km/h (1 Bft) O 90 0 min 0,0 UV-I 4,1 C 11,9 C 3,7 km/h (1 Bft)
14.11.2011 14:00 9,1 C 9,4 C 8,8 C 12,1 C 12,1 C 3,0 C 71 % 80 % 79 % 1027,4 hPa 0,0 l/m 2,7 km/h (1 Bft) W-SW 247 0 min 0,0 UV-I 4,1 C 12,1 C 3,7 km/h (1 Bft)
14.11.2011 14:11 9,4 C 9,4 C 11,7 C 12,4 C 12,4 C 3,0 C 70 % 74 % 79 % 1027,4 hPa 0,0 l/m 1,6 km/h (1 Bft) N 0 0 min 0,0 UV-I 4,2 C 12,4 C 0,0 km/h (0 Bft)
14.11.2011 14:20 9,8 C 9,4 C 13,1 C 13,6 C 13,6 C 3,8 C 69 % 66 % 100 % 1027,4 hPa 0,0 l/m 0,5 km/h (0 Bft) W 270 9 min 0,0 UV-I 4,4 C 13,6 C 0,0 km/h (0 Bft)
14.11.2011 14:25 10,1 C 9,4 C 11,5 C 14,4 C 14,4 C 4,3 C 69 % 67 % 100 % 1027,4 hPa 0,0 l/m 0,2 km/h (0 Bft) NW 315 5 min 0,0 UV-I 4,7 C 14,4 C 0,0 km/h (0 Bft)
14.11.2011 14:30 10,3 C 9,5 C 10,7 C 14,4 C 14,4 C 4,1 C 69 % 68 % 100 % 1027,4 hPa 0,0 l/m 0,0 km/h (0 Bft) NW 315 5 min 0,0 UV-I 4,9 C 14,4 C 0,0 km/h (0 Bft)
14.11.2011 14:35 10,7 C 9,5 C 10,0 C 14,4 C 14,4 C 3,7 C 67 % 70 % 97 % 1027,4 hPa 0,0 l/m 0,0 km/h (0 Bft) NW 315 5 min 0,0 UV-I 4,8 C 14,4 C 0,0 km/h (0 Bft)
14.11.2011 14:40 10,7 C 9,5 C 9,7 C 14,5 C 14,5 C 3,8 C 67 % 71 % 100 % 1027,5 hPa 0,0 l/m 0,2 km/h (0 Bft) NW 315 5 min 0,0 UV-I 4,8 C 14,5 C 0,0 km/h (0 Bft)
14.11.2011 14:45 10,6 C 9,5 C 9,2 C 14,8 C 14,8 C 4,2 C 67 % 72 % 100 % 1027,5 hPa 0,0 l/m 0,2 km/h (0 Bft) W-SW 247 5 min 0,0 UV-I 4,7 C 14,8 C 0,0 km/h (0 Bft)
14.11.2011 14:50 10,8 C 9,5 C 9,1 C 14,9 C 14,9 C 4,1 C 67 % 73 % 100 % 1027,5 hPa 0,0 l/m 0,0 km/h (0 Bft) W-SW 247 5 min 0,0 UV-I 4,9 C 14,9 C 0,0 km/h (0 Bft)
14.11.2011 14:55 10,8 C 9,5 C 8,8 C 15,1 C 15,1 C 4,3 C 67 % 73 % 100 % 1027,5 hPa 0,0 l/m 0,0 km/h (0 Bft) W-SW 247 5 min 0,0 UV-I 4,9 C 15,1 C 0,0 km/h (0 Bft)
14.11.2011 15:00 10,7 C 9,6 C 8,4 C 15,2 C 15,2 C 4,5 C 66 % 74 % 100 % 1026,9 hPa 0,0 l/m 0,0 km/h (0 Bft) W-SW 247 5 min 0,0 UV-I 4,6 C 15,2 C 1,6 km/h (1 Bft)
14.11.2011 15:04 10,3 C 9,7 C 8,2 C 14,8 C 14,8 C 4,5 C 66 % 75 % 100 % 1026,9 hPa 0,0 l/m 0,2 km/h (0 Bft) W-SW 247 4 min 0,0 UV-I 4,2 C 14,8 C 0,0 km/h (0 Bft)
14.11.2011 15:09 10,1 C 9,7 C 8,1 C 14,4 C 14,4 C 4,3 C 66 % 75 % 100 % 1026,9 hPa 0,0 l/m 0,2 km/h (0 Bft) NW 315 5 min 0,0 UV-I 4,0 C 14,4 C 0,0 km/h (0 Bft)
14.11.2011 15:14 9,8 C 9,7 C 7,9 C 13,8 C 13,8 C 4,0 C 67 % 76 % 100 % 1026,9 hPa 0,0 l/m 0,2 km/h (0 Bft) NW 315 5 min 0,0 UV-I 4,0 C 13,8 C 0,0 km/h (0 Bft)
14.11.2011 15:18 9,8 C 9,7 C 7,9 C 13,8 C 13,8 C 4,0 C 67 % 76 % 100 % 1026,9 hPa 0,0 l/m 0,2 km/h (0 Bft) NW 315 4 min 0,0 UV-I 4,0 C 13,8 C 0,0 km/h (0 Bft)
14.11.2011 15:25 9,3 C 9,7 C 7,5 C 11,2 C 11,2 C 1,9 C 68 % 76 % 50 % 1026,9 hPa 0,0 l/m 0,0 km/h (0 Bft) N-NW 337 0 min 0,0 UV-I 3,7 C 11,2 C 0,0 km/h (0 Bft)
14.11.2011 15:30 9,2 C 9,7 C 7,2 C 10,3 C 10,3 C 1,1 C 69 % 78 % 29 % 1026,9 hPa 0,0 l/m 0,0 km/h (0 Bft) N-NW 337 5 min 0,0 UV-I 3,8 C 10,3 C 0,0 km/h (0 Bft)
14.11.2011 15:35 8,9 C 9,7 C 6,9 C 9,5 C 9,5 C 0,6 C 70 % 78 % 16 % 1026,9 hPa 0,0 l/m 0,0 km/h (0 Bft) N-NW 337 0 min 0,0 UV-I 3,7 C 9,5 C 0,0 km/h (0 Bft)
14.11.2011 15:40 8,9 C 9,7 C 6,9 C 9,0 C 9,0 C 0,1 C 70 % 79 % 3 % 1026,9 hPa 0,0 l/m 0,0 km/h (0 Bft) W 270 0 min 0,0 UV-I 3,7 C 9,0 C 0,0 km/h (0 Bft)
14.11.2011 15:45 8,7 C 9,7 C 6,7 C 8,7 C 8,6 C 0,0 C 71 % 79 % 0 % 1026,9 hPa 0,0 l/m 0,0 km/h (0 Bft) N-NO 22 0 min 0,0 UV-I 3,7 C 8,6 C 0,0 km/h (0 Bft)
14.11.2011 15:50 8,4 C 9,8 C 6,4 C 8,5 C 8,5 C 0,1 C 71 % 79 % 3 % 1026,9 hPa 0,0 l/m 0,0 km/h (0 Bft) N-NO 22 0 min 0,0 UV-I 3,5 C 8,5 C 0,0 km/h (0 Bft)
14.11.2011 15:55 8,2 C 9,8 C 6,3 C 8,7 C 8,7 C 0,5 C 72 % 80 % 13 % 1026,9 hPa 0,0 l/m 0,0 km/h (0 Bft) N-NO 22 0 min 0,0 UV-I 3,5 C 8,7 C 0,0 km/h (0 Bft)
14.11.2011 16:00 8,1 C 9,8 C 6,2 C 8,6 C 8,6 C 0,5 C 72 % 81 % 13 % 1026,4 hPa 0,0 l/m 0,0 km/h (0 Bft) N-NO 22 5 min 0,0 UV-I 3,4 C 8,6 C 0,0 km/h (0 Bft)
14.11.2011 16:12 7,8 C 9,8 C 6,1 C 7,7 C 7,6 C 0,0 C 73 % 80 % 0 % 1026,4 hPa 0,0 l/m 0,0 km/h (0 Bft) N 0 0 min 0,0 UV-I 3,3 C 7,6 C 0,0 km/h (0 Bft)
14.11.2011 16:20 7,4 C 9,8 C 5,6 C 7,0 C 6,3 C 0,0 C 73 % 81 % 0 % 1026,9 hPa 0,0 l/m 0,0 km/h (0 Bft) N 360 0 min 0,0 UV-I 2,9 C 6,3 C 0,0 km/h (0 Bft)
14.11.2011 16:25 6,9 C 10,0 C 5,1 C 6,4 C 5,5 C 0,0 C 73 % 81 % 0 % 1026,9 hPa 0,0 l/m 0,0 km/h (0 Bft) N 360 0 min 0,0 UV-I 2,4 C 5,5 C 0,0 km/h (0 Bft)
14.11.2011 16:30 6,8 C 10,0 C 4,7 C 6,2 C 5,0 C 0,0 C 73 % 80 % 0 % 1026,9 hPa 0,0 l/m 0,0 km/h (0 Bft) N 360 0 min 0,0 UV-I 2,3 C 5,0 C 0,0 km/h (0 Bft)
14.11.2011 16:35 6,3 C 10,0 C 4,3 C 5,6 C 4,2 C 0,0 C 75 % 81 % 0 % 1026,9 hPa 0,0 l/m 0,0 km/h (0 Bft) N 360 0 min 0,0 UV-I 2,2 C 4,2 C 0,0 km/h (0 Bft)
14.11.2011 16:40 5,9 C 10,0 C 4,3 C 5,2 C 3,8 C 0,0 C 75 % 82 % 0 % 1027,0 hPa 0,0 l/m 0,0 km/h (0 Bft) N 360 0 min 0,0 UV-I 1,8 C 3,8 C 0,0 km/h (0 Bft)
14.11.2011 16:45 5,5 C 10,0 C 3,9 C 4,8 C 3,3 C 0,0 C 77 % 83 % 0 % 1027,0 hPa 0,0 l/m 0,0 km/h (0 Bft) N-NO 22 0 min 0,0 UV-I 1,8 C 3,3 C 0,0 km/h (0 Bft)
14.11.2011 16:50 5,3 C 10,0 C 3,7 C 4,6 C 3,1 C 0,0 C 77 % 83 % 0 % 1027,0 hPa 0,0 l/m 0,0 km/h (0 Bft) N-NO 22 0 min 0,0 UV-I 1,6 C 3,1 C 0,0 km/h (0 Bft)
14.11.2011 16:55 4,8 C 10,0 C 3,5 C 4,2 C 3,0 C 0,0 C 78 % 83 % 0 % 1027,0 hPa 0,0 l/m 0,0 km/h (0 Bft) W 270 0 min 0,0 UV-I 1,3 C 3,0 C 0,0 km/h (0 Bft)
14.11.2011 17:00 4,7 C 10,1 C 3,1 C 4,1 C 2,8 C 0,0 C 78 % 83 % 0 % 1027,0 hPa 0,0 l/m 0,0 km/h (0 Bft) W 270 0 min 0,0 UV-I 1,2 C 2,8 C 0,0 km/h (0 Bft)
14.11.2011 17:12 4,0 C 10,1 C 2,9 C 3,3 C 2,0 C 0,0 C 79 % 84 % 0 % 1027,0 hPa 0,0 l/m 0,0 km/h (0 Bft) N 0 0 min 0,0 UV-I 0,7 C 2,0 C 0,0 km/h (0 Bft)
14.11.2011 17:20 3,6 C 10,2 C 2,5 C 2,9 C 1,5 C 0,0 C 81 % 85 % 0 % 1027,0 hPa 0,0 l/m 0,0 km/h (0 Bft) W-NW 292 0 min 0,0 UV-I 0,7 C 1,5 C 0,0 km/h (0 Bft)
14.11.2011 17:25 3,3 C 10,1 C 2,2 C 2,6 C 1,3 C 0,0 C 81 % 85 % 0 % 1027,0 hPa 0,0 l/m 0,0 km/h (0 Bft) W-NW 292 0 min 0,0 UV-I 0,4 C 1,3 C 0,0 km/h (0 Bft)
14.11.2011 17:30 3,0 C 10,2 C 2,1 C 2,3 C 1,0 C 0,0 C 82 % 85 % 0 % 1027,0 hPa 0,0 l/m 0,0 km/h (0 Bft) W-NW 292 0 min 0,0 UV-I 0,2 C 1,0 C 0,0 km/h (0 Bft)
14.11.2011 17:35 2,8 C 10,3 C 1,9 C 2,1 C 0,7 C 0,0 C 82 % 86 % 0 % 1027,0 hPa 0,0 l/m 0,0 km/h (0 Bft) W-NW 292 0 min 0,0 UV-I 0,0 C 0,7 C 0,0 km/h (0 Bft)
14.11.2011 17:40 2,6 C 10,3 C 1,7 C 1,9 C 0,5 C 0,0 C 82 % 86 % 0 % 1027,0 hPa 0,0 l/m 0,0 km/h (0 Bft) W 270 0 min 0,0 UV-I -0,2 C 0,5 C 0,0 km/h (0 Bft)
14.11.2011 17:45 2,3 C 10,4 C 1,6 C 1,6 C 0,2 C 0,0 C 82 % 86 % 0 % 1027,0 hPa 0,0 l/m 0,0 km/h (0 Bft) W 270 0 min 0,0 UV-I -0,4 C 0,2 C 0,0 km/h (0 Bft)
14.11.2011 17:50 2,1 C 10,4 C 1,4 C 1,5 C 0,3 C 0,0 C 82 % 86 % 0 % 1027,0 hPa 0,0 l/m 0,0 km/h (0 Bft) W 270 0 min 0,0 UV-I -0,6 C 0,3 C 0,0 km/h (0 Bft)
14.11.2011 17:55 1,9 C 10,5 C 1,2 C 1,3 C 0,1 C 0,0 C 83 % 86 % 0 % 1027,0 hPa 0,0 l/m 0,0 km/h (0 Bft) NW 315 0 min 0,0 UV-I -0,7 C 0,1 C 0,0 km/h (0 Bft)
14.11.2011 18:00 1,7 C 10,5 C 1,2 C 1,1 C 0,0 C 0,0 C 83 % 86 % 0 % 1026,8 hPa 0,0 l/m 0,0 km/h (0 Bft) NW 315 0 min 0,0 UV-I -0,9 C 0,0 C 0,0 km/h (0 Bft)
14.11.2011 18:12 1,5 C 10,5 C 1,1 C 0,9 C -0,2 C 0,0 C 84 % 87 % 0 % 1026,8 hPa 0,0 l/m 0,0 km/h (0 Bft) N 0 0 min 0,0 UV-I -0,9 C -0,2 C 0,0 km/h (0 Bft)
14.11.2011 18:20 1,2 C 10,5 C 0,7 C 0,7 C -0,4 C 0,0 C 85 % 87 % 0 % 1027,4 hPa 0,0 l/m 0,0 km/h (0 Bft) W 270 0 min 0,0 UV-I -1,0 C -0,4 C 0,0 km/h (0 Bft)
14.11.2011 18:25 1,1 C 10,4 C 0,7 C 0,5 C -0,6 C 0,0 C 85 % 87 % 0 % 1027,4 hPa 0,0 l/m 0,0 km/h (0 Bft) W 270 0 min 0,0 UV-I -1,1 C -0,6 C 0,0 km/h (0 Bft)
14.11.2011 18:30 0,9 C 10,5 C 0,7 C 0,3 C -0,8 C 0,0 C 85 % 87 % 0 % 1027,4 hPa 0,0 l/m 0,0 km/h (0 Bft) W 270 0 min 0,0 UV-I -1,3 C -0,8 C 0,0 km/h (0 Bft)
14.11.2011 18:35 0,8 C 10,5 C 0,4 C 0,2 C -0,9 C 0,0 C 85 % 87 % 0 % 1027,4 hPa 0,0 l/m 0,0 km/h (0 Bft) W 270 0 min 0,0 UV-I -1,4 C -0,9 C 0,0 km/h (0 Bft)
14.11.2011 18:40 0,6 C 10,5 C 0,4 C 0,1 C -1,0 C 0,0 C 86 % 88 % 0 % 1026,6 hPa 0,0 l/m 0,0 km/h (0 Bft) W 270 0 min 0,0 UV-I -1,5 C -1,0 C 0,0 km/h (0 Bft)
14.11.2011 18:45 0,5 C 10,5 C 0,2 C 0,0 C -0,9 C 0,0 C 86 % 88 % 0 % 1026,6 hPa 0,0 l/m 0,0 km/h (0 Bft) N-NW 337 0 min 0,0 UV-I -1,6 C -0,9 C 0,0 km/h (0 Bft)
14.11.2011 18:50 0,4 C 10,5 C 0,2 C 0,0 C -0,9 C 0,0 C 86 % 88 % 0 % 1026,6 hPa 0,0 l/m 0,0 km/h (0 Bft) N 360 0 min 0,0 UV-I -1,7 C -0,9 C 0,0 km/h (0 Bft)
14.11.2011 18:55 0,4 C 10,5 C 0,1 C 0,0 C -0,9 C 0,0 C 87 % 89 % 0 % 1026,6 hPa 0,0 l/m 0,0 km/h (0 Bft) N-NW 337 0 min 0,0 UV-I -1,5 C -0,9 C 0,0 km/h (0 Bft)
14.11.2011 19:00 0,4 C 10,5 C 0,3 C -0,1 C -1,0 C 0,0 C 87 % 89 % 0 % 1027,6 hPa 0,0 l/m 0,2 km/h (0 Bft) W 270 0 min 0,0 UV-I -1,5 C -1,0 C 0,0 km/h (0 Bft)
14.11.2011 19:14 -0,1 C 10,6 C -0,3 C -0,6 C -1,6 C 0,0 C 87 % 89 % 0 % 1027,6 hPa 0,0 l/m 0,0 km/h (0 Bft) W 270 0 min 0,0 UV-I -2,0 C -1,6 C 0,0 km/h (0 Bft)
14.11.2011 19:16 -0,1 C 10,6 C -0,3 C -0,6 C -1,6 C 0,0 C 87 % 89 % 0 % 1027,6 hPa 0,0 l/m 0,0 km/h (0 Bft) W 270 0 min 0,0 UV-I -2,0 C -1,6 C 0,0 km/h (0 Bft)
14.11.2011 19:20 -0,3 C 10,6 C -0,3 C -0,8 C -1,8 C 0,0 C 87 % 89 % 0 % 1026,9 hPa 0,0 l/m 0,0 km/h (0 Bft) W 270 0 min 0,0 UV-I -2,2 C -1,8 C 0,0 km/h (0 Bft)
14.11.2011 19:25 -0,5 C 10,6 C -0,4 C -1,0 C -2,1 C 0,0 C 87 % 89 % 0 % 1026,9 hPa 0,0 l/m 0,0 km/h (0 Bft) W 270 0 min 0,0 UV-I -2,4 C -2,1 C 0,0 km/h (0 Bft)
14.11.2011 19:30 -0,5 C 10,6 C -0,5 C -1,1 C -2,3 C 0,0 C 87 % 88 % 0 % 1026,9 hPa 0,0 l/m 0,0 km/h (0 Bft) W 270 0 min 0,0 UV-I -2,4 C -2,3 C 0,0 km/h (0 Bft)
14.11.2011 19:35 -0,7 C 10,6 C -0,5 C -1,2 C -2,3 C 0,0 C 87 % 89 % 0 % 1026,9 hPa 0,0 l/m 0,0 km/h (0 Bft) W 270 0 min 0,0 UV-I -2,6 C -2,3 C 0,0 km/h (0 Bft)
14.11.2011 19:40 -0,7 C 10,6 C -0,7 C -1,2 C -2,3 C 0,0 C 87 % 89 % 0 % 1026,9 hPa 0,0 l/m 0,0 km/h (0 Bft) W 270 0 min 0,0 UV-I -2,6 C -2,3 C 0,0 km/h (0 Bft)
14.11.2011 19:45 -0,9 C 10,6 C -0,7 C -1,4 C -2,4 C 0,0 C 87 % 89 % 0 % 1026,9 hPa 0,0 l/m 0,0 km/h (0 Bft) W 270 0 min 0,0 UV-I -2,8 C -2,4 C 0,0 km/h (0 Bft)
14.11.2011 19:50 -1,0 C 10,6 C -0,9 C -1,5 C -2,4 C 0,0 C 87 % 89 % 0 % 1026,9 hPa 0,0 l/m 0,0 km/h (0 Bft) W 270 0 min 0,0 UV-I -2,9 C -2,4 C 0,0 km/h (0 Bft)
14.11.2011 19:55 -1,2 C 10,6 C -0,9 C -1,7 C -2,7 C 0,0 C 87 % 89 % 0 % 1026,9 hPa 0,0 l/m 0,0 km/h (0 Bft) W 270 0 min 0,0 UV-I -3,1 C -2,7 C 0,0 km/h (0 Bft)
14.11.2011 20:00 -1,3 C 10,5 C -0,9 C -1,8 C -2,8 C 0,0 C 88 % 89 % 0 % 1027,4 hPa 0,0 l/m 0,0 km/h (0 Bft) W 270 0 min 0,0 UV-I -3,0 C -2,8 C 0,0 km/h (0 Bft)
14.11.2011 20:12 -1,5 C 10,5 C -1,1 C -2,0 C -3,0 C 0,0 C 88 % 89 % 0 % 1027,4 hPa 0,0 l/m 0,0 km/h (0 Bft) N 0 0 min 0,0 UV-I -3,2 C -3,0 C 0,0 km/h (0 Bft)
14.11.2011 20:20 -1,7 C 10,5 C -1,3 C -2,2 C -3,1 C 0,0 C 88 % 89 % 0 % 1027,2 hPa 0,0 l/m 0,0 km/h (0 Bft) NW 315 0 min 0,0 UV-I -3,4 C -3,1 C 0,0 km/h (0 Bft)
14.11.2011 20:25 -1,8 C 10,5 C -1,3 C -2,2 C -3,1 C 0,0 C 88 % 89 % 0 % 1027,2 hPa 0,0 l/m 0,0 km/h (0 Bft) N-NO 22 0 min 0,0 UV-I -3,5 C -3,1 C 0,0 km/h (0 Bft)
14.11.2011 20:30 -1,7 C 10,5 C -1,5 C -2,2 C -3,1 C 0,0 C 88 % 89 % 0 % 1027,2 hPa 0,0 l/m 0,0 km/h (0 Bft) NW 315 0 min 0,0 UV-I -3,4 C -3,1 C 0,0 km/h (0 Bft)
14.11.2011 20:35 -1,7 C 10,5 C -1,3 C -2,1 C -3,0 C 0,0 C 89 % 90 % 0 % 1027,2 hPa 0,0 l/m 0,0 km/h (0 Bft) NW 315 0 min 0,0 UV-I -3,3 C -3,0 C 0,0 km/h (0 Bft)
14.11.2011 20:40 -1,7 C 10,5 C -1,3 C -2,1 C -3,0 C 0,0 C 89 % 90 % 0 % 1027,4 hPa 0,0 l/m 0,0 km/h (0 Bft) NW 315 0 min 0,0 UV-I -3,3 C -3,0 C 0,0 km/h (0 Bft)
14.11.2011 20:45 -1,7 C 10,5 C -1,3 C -2,2 C -3,1 C 0,0 C 89 % 90 % 0 % 1027,4 hPa 0,0 l/m 0,0 km/h (0 Bft) W-NW 292 0 min 0,0 UV-I -3,3 C -3,1 C 0,0 km/h (0 Bft)
14.11.2011 20:50 -1,7 C 10,5 C -1,3 C -2,2 C -3,1 C 0,0 C 89 % 90 % 0 % 1027,4 hPa 0,0 l/m 0,0 km/h (0 Bft) W-NW 292 0 min 0,0 UV-I -3,3 C -3,1 C 0,0 km/h (0 Bft)
14.11.2011 20:55 -1,9 C 10,5 C -1,7 C -2,3 C -3,2 C 0,0 C 89 % 90 % 0 % 1027,4 hPa 0,0 l/m 0,0 km/h (0 Bft) W-NW 292 0 min 0,0 UV-I -3,5 C -3,2 C 0,0 km/h (0 Bft)
14.11.2011 21:00 -1,9 C 10,5 C -1,7 C -2,3 C -3,2 C 0,0 C 89 % 90 % 0 % 1027,6 hPa 0,0 l/m 0,0 km/h (0 Bft) NO 45 0 min 0,0 UV-I -3,5 C -3,2 C 0,0 km/h (0 Bft)
14.11.2011 21:09 -2,0 C 10,4 C -1,9 C -2,4 C -3,1 C 0,0 C 89 % 90 % 0 % 1027,6 hPa 0,0 l/m 0,0 km/h (0 Bft) N 0 0 min 0,0 UV-I -3,6 C -3,1 C 0,0 km/h (0 Bft)
14.11.2011 21:15 -2,0 C 10,4 C -1,7 C -2,4 C -3,1 C 0,0 C 89 % 90 % 0 % 1027,6 hPa 0,0 l/m 0,0 km/h (0 Bft) N-NO 22 0 min 0,0 UV-I -3,6 C -3,1 C 0,0 km/h (0 Bft)
14.11.2011 21:20 -2,1 C 10,4 C -1,9 C -2,5 C -3,2 C 0,0 C 89 % 90 % 0 % 1027,2 hPa 0,0 l/m 0,0 km/h (0 Bft) NO 45 0 min 0,0 UV-I -3,7 C -3,2 C 0,0 km/h (0 Bft)
14.11.2011 21:25 -2,1 C 10,4 C -1,7 C -2,4 C -3,1 C 0,0 C 89 % 90 % 0 % 1027,2 hPa 0,0 l/m 0,0 km/h (0 Bft) NO 45 0 min 0,0 UV-I -3,7 C -3,1 C 0,0 km/h (0 Bft)
14.11.2011 21:30 -2,1 C 10,4 C -1,9 C -2,5 C -3,2 C 0,0 C 89 % 90 % 0 % 1027,2 hPa 0,0 l/m 0,0 km/h (0 Bft) NW 315 0 min 0,0 UV-I -3,7 C -3,2 C 0,0 km/h (0 Bft)
14.11.2011 21:35 -2,1 C 10,4 C -1,9 C -2,5 C -3,3 C 0,0 C 89 % 90 % 0 % 1027,2 hPa 0,0 l/m 0,0 km/h (0 Bft) NW 315 0 min 0,0 UV-I -3,7 C -3,3 C 0,0 km/h (0 Bft)
14.11.2011 21:40 -2,1 C 10,4 C -1,9 C -2,5 C -3,4 C 0,0 C 89 % 90 % 0 % 1027,2 hPa 0,0 l/m 0,0 km/h (0 Bft) NW 315 0 min 0,0 UV-I -3,7 C -3,4 C 0,0 km/h (0 Bft)
14.11.2011 21:45 -2,1 C 10,4 C -2,1 C -2,6 C -3,6 C 0,0 C 89 % 90 % 0 % 1027,2 hPa 0,0 l/m 0,0 km/h (0 Bft) NW 315 0 min 0,0 UV-I -3,7 C -3,6 C 0,0 km/h (0 Bft)
14.11.2011 21:50 -2,3 C 10,4 C -2,1 C -2,8 C -3,7 C 0,0 C 89 % 90 % 0 % 1027,2 hPa 0,0 l/m 0,0 km/h (0 Bft) NW 315 0 min 0,0 UV-I -3,9 C -3,7 C 0,0 km/h (0 Bft)
14.11.2011 21:55 -2,4 C 10,4 C -2,0 C -2,7 C -3,2 C 0,0 C 89 % 90 % 0 % 1027,2 hPa 0,0 l/m 0,0 km/h (0 Bft) NW 315 0 min 0,0 UV-I -4,0 C -3,2 C 0,0 km/h (0 Bft)
14.11.2011 22:00 -2,4 C 10,4 C -2,0 C -2,6 C -3,1 C 0,0 C 89 % 90 % 0 % 1026,9 hPa 0,0 l/m 0,0 km/h (0 Bft) NW 315 0 min 0,0 UV-I -4,0 C -3,1 C 0,0 km/h (0 Bft)
14.11.2011 22:11 -2,5 C 10,4 C -2,1 C -2,9 C -3,6 C 0,0 C 89 % 90 % 0 % 1026,9 hPa 0,0 l/m 0,0 km/h (0 Bft) N 0 0 min 0,0 UV-I -4,1 C -3,6 C 0,0 km/h (0 Bft)
14.11.2011 22:20 -2,5 C 10,3 C -2,3 C -2,9 C -3,6 C 0,0 C 90 % 90 % 0 % 1027,1 hPa 0,0 l/m 0,0 km/h (0 Bft) N 360 0 min 0,0 UV-I -3,9 C -3,6 C 0,0 km/h (0 Bft)
14.11.2011 22:25 -2,7 C 10,3 C -2,3 C -3,0 C -3,7 C 0,0 C 90 % 90 % 0 % 1027,1 hPa 0,0 l/m 0,0 km/h (0 Bft) N 360 0 min 0,0 UV-I -4,1 C -3,7 C 0,0 km/h (0 Bft)
14.11.2011 22:30 -2,7 C 10,3 C -2,3 C -3,0 C -3,7 C 0,0 C 90 % 90 % 0 % 1027,1 hPa 0,0 l/m 0,0 km/h (0 Bft) N 360 0 min 0,0 UV-I -4,1 C -3,7 C 0,0 km/h (0 Bft)
14.11.2011 22:35 -2,7 C 10,3 C -2,4 C -3,0 C -3,7 C 0,0 C 90 % 90 % 0 % 1027,1 hPa 0,0 l/m 0,0 km/h (0 Bft) N 360 0 min 0,0 UV-I -4,1 C -3,7 C 0,0 km/h (0 Bft)
14.11.2011 22:40 -2,7 C 10,3 C -2,5 C -3,0 C -3,7 C 0,0 C 90 % 90 % 0 % 1026,9 hPa 0,0 l/m 0,0 km/h (0 Bft) W 270 0 min 0,0 UV-I -4,1 C -3,7 C 0,0 km/h (0 Bft)
14.11.2011 22:45 -2,8 C 10,3 C -2,4 C -3,1 C -3,8 C 0,0 C 90 % 91 % 0 % 1026,9 hPa 0,0 l/m 0,0 km/h (0 Bft) W 270 0 min 0,0 UV-I -4,2 C -3,8 C 0,0 km/h (0 Bft)
14.11.2011 22:50 -2,9 C 10,3 C -2,4 C -3,2 C -3,8 C 0,0 C 90 % 91 % 0 % 1026,9 hPa 0,0 l/m 0,0 km/h (0 Bft) W 270 0 min 0,0 UV-I -4,3 C -3,8 C 0,0 km/h (0 Bft)
14.11.2011 22:55 -2,9 C 10,3 C -2,4 C -3,2 C -3,9 C 0,0 C 90 % 91 % 0 % 1026,9 hPa 0,0 l/m 0,0 km/h (0 Bft) W 270 0 min 0,0 UV-I -4,3 C -3,9 C 0,0 km/h (0 Bft)
14.11.2011 23:00 -2,9 C 10,3 C -2,5 C -3,3 C -4,1 C 0,0 C 90 % 91 % 0 % 1026,5 hPa 0,0 l/m 0,0 km/h (0 Bft) W 270 0 min 0,0 UV-I -4,3 C -4,1 C 0,0 km/h (0 Bft)
14.11.2011 23:11 -3,1 C 10,3 C -2,5 C -3,5 C -4,2 C 0,0 C 90 % 90 % 0 % 1026,5 hPa 0,0 l/m 0,0 km/h (0 Bft) N 0 0 min 0,0 UV-I -4,5 C -4,2 C 0,0 km/h (0 Bft)
14.11.2011 23:20 -3,2 C 10,2 C -2,7 C -3,6 C -4,3 C 0,0 C 90 % 91 % 0 % 1026,3 hPa 0,0 l/m 0,0 km/h (0 Bft) W 270 0 min 0,0 UV-I -4,6 C -4,3 C 0,0 km/h (0 Bft)
14.11.2011 23:25 -3,3 C 10,2 C -2,7 C -3,7 C -4,4 C 0,0 C 90 % 91 % 0 % 1026,3 hPa 0,0 l/m 0,0 km/h (0 Bft) NW 315 0 min 0,0 UV-I -4,7 C -4,4 C 0,0 km/h (0 Bft)
14.11.2011 23:30 -3,3 C 10,2 C -2,7 C -3,6 C -4,3 C 0,0 C 90 % 91 % 0 % 1026,3 hPa 0,0 l/m 0,0 km/h (0 Bft) NW 315 0 min 0,0 UV-I -4,7 C -4,3 C 0,0 km/h (0 Bft)
14.11.2011 23:35 -3,3 C 10,2 C -2,7 C -3,7 C -4,4 C 0,0 C 90 % 91 % 0 % 1026,3 hPa 0,0 l/m 0,0 km/h (0 Bft) NW 315 0 min 0,0 UV-I -4,7 C -4,4 C 0,0 km/h (0 Bft)
14.11.2011 23:40 -3,3 C 10,2 C -2,8 C -3,7 C -4,6 C 0,0 C 90 % 91 % 0 % 1026,4 hPa 0,0 l/m 0,0 km/h (0 Bft) NW 315 0 min 0,0 UV-I -4,7 C -4,6 C 0,0 km/h (0 Bft)
14.11.2011 23:45 -3,5 C 10,2 C -2,7 C -3,9 C -4,6 C 0,0 C 90 % 91 % 0 % 1026,4 hPa 0,0 l/m 0,0 km/h (0 Bft) W 270 0 min 0,0 UV-I -4,9 C -4,6 C 0,0 km/h (0 Bft)
14.11.2011 23:50 -3,5 C 10,2 C -2,7 C -3,8 C -4,5 C 0,0 C 90 % 91 % 0 % 1026,4 hPa 0,0 l/m 0,0 km/h (0 Bft) W 270 0 min 0,0 UV-I -4,9 C -4,5 C 0,0 km/h (0 Bft)
14.11.2011 23:55 -3,5 C 10,2 C -2,9 C -3,8 C -4,3 C 0,0 C 90 % 90 % 0 % 1026,4 hPa 0,0 l/m 0,0 km/h (0 Bft) W 270 0 min 0,0 UV-I -4,9 C -4,3 C 0,0 km/h (0 Bft)
_ Min-Zeit 05:30 11:30 06:35 05:30 05:30 00:00 15:00 14:20 00:00 23:20 - 00:00 - - - 00:00 05:30 05:30 00:00
Minimum _ -4,1 C 9,1 C -3,6 C -4,4 C -4,9 C 0,0 C 66 % 66 % 0 % 1026,3 hPa - 0,0 km/h (0 Bft) - - - 0,0 UV-I -5,3 C -4,9 C 0,0 km/h (0 Bft)
_ Max-Zeit 14:50 19:14 14:20 15:00 15:00 15:00 09:45 09:30 11:10 00:00 00:00 13:55 - - 12:11 00:00 14:50 15:00 13:55
Maximum _ 10,8 C 10,6 C 13,1 C 15,2 C 15,2 C 4,5 C 93 % 92 % 100 % 1033,0 hPa 0,0 l/m 2,7 km/h
O (1 Bft)
- - 11 min 0,0 UV-I 4,9 C 15,2 C 3,7 km/h
O (1 Bft)
Durchschnitt _ 0,1 C 10,0 C 0,2 C 0,6 C 0,1 C 0,7 C 87 % 88 % 19 % 1028,9 hPa #0,0 l/m 0,1 km/h (0 Bft) W-SW - #2:23 h 0,0 UV-I -1,9 C 0,1 C 0,2 km/h (0 Bft)
2011 www.wetterstation-wechselburg.de